Regional Weather Roundup
Issued by NWS

Home | Current Version | Previous Version | Text Only | Print | Product List | Glossary Off
Versions: 1 2 3 4 5 6 7 8 9 10 11 12 13 14 15 16 17 18 19 20 21 22 23 24 25 26 27 28 29 30 31 32 33 34 35 36 37 38 39 40 41 42 43 44 45 46 47 48 49 50

000
ASUS45 KSLC 041910
RWRUT

UTAH REGIONAL WEATHER ROUNDUP
NATIONAL WEATHER SERVICE SALT LAKE CITY UT
100 PM MDT SAT JUL 04 2015

UTZ001>011-023>025-042000-

NORTHERN UTAH

CITY           SKY/WX    TMP DP  RH WIND       PRES   REMARKS
BRIGHAM CITY   MOSUNNY   93  37  13 S6        29.94F
HILL AFB       MOSUNNY   91  47  22 SW8       29.99F
LOGAN          SUNNY     92  45  19 CALM      29.95F
OGDEN          MOSUNNY   93  46  19 SW7       29.95F
PROVO AIRPORT  PTSUNNY  N/A N/A N/A VRB5      29.98F
SALT LAKE CITY PTSUNNY   93  49  22 S13       29.93S HX  90
VERNAL         MOSUNNY   89  45  21 W5        30.03F
WENDOVER       MOSUNNY   95  45  17 E12       29.94F HX  91
HEBER CITY     PTSUNNY   86  41  20 W6        30.06F
WEST JORDAN    SUNNY     90  46  22 SE15      29.98F

$$

UTZ012>022-026-027-042000-

SOUTHERN/CENTRAL UTAH

CITY           SKY/WX    TMP DP  RH WIND       PRES   REMARKS
BLANDING       MOSUNNY   83  49  30 S3        30.20F
BRYCE CANYON   CLOUDY    73  50  44 SE14      30.27F
CEDAR CITY     CLOUDY    84  48  28 SW14      30.11F
DELTA          PTSUNNY   93  41  16 SW5       29.98F
HANKSVILLE     MOSUNNY   93  46  20 SE3       29.99F
MILFORD        CLOUDY    89  46  22 SW22G30   30.03S
MOAB/CYNLANDS  SUNNY     92  52  25 S10       29.98F
PRICE          MOSUNNY   88  46  23 SW6       30.10F
ST GEORGE      MOCLDY    91  48  22 W12       29.96F
KANAB          CLOUDY    82  55  39 SW8       30.13F

$$

REGIONAL REPORTS     COLORADO/ARIZONA

CITY           SKY/WX    TMP DP  RH WIND       PRES   REMARKS
CRAIG, CO      MOSUNNY   88  46  23 VRB3      30.10F
GRAND JUNCTION SUNNY     89  49  25 VRB6G21   30.01F
RIFLE          SUNNY     86  51  29 VRB5      30.08F
MONTROSE       PTSUNNY   85  49  28 VRB3      30.13F
CORTEZ         SUNNY     89  49  25 SW13      30.13F
PAGE, AZ       CLOUDY    86  55  34 S9        30.03F
GRAND CANYON   CLOUDY    73  51  46 SW7       30.23S
KINGMAN        CLOUDY    88  49  25 SW15      30.01R
FLAGSTAFF      MOSUNNY   73  55  53 SW12      30.25S

$$

REGIONAL REPORTS    NEVADA/IDAHO/WYOMING

CITY           SKY/WX    TMP DP  RH WIND       PRES   REMARKS
LAS VEGAS, NV  CLOUDY    96  43  16 W3        29.84S HX  92
ELY            CLOUDY    83  40  21 SW14G22   30.15S
ELKO           MOSUNNY   90  46  21 S6        30.00F
POCATELLO, ID  SUNNY     91  48  22 W10       29.96F
BURLEY         MOSUNNY   86  51  29 W7        29.94F
EVANSTON, WY   PTSUNNY   85  44  23 SW13G26   30.16F THUNDER
ROCK SPRINGS   MOSUNNY   84  40  21 W12       30.12F
KEMMERER       SUNNY     82  36  18 W14G21    30.17F

$$


USA.gov is the U.S. government's official web portal to all federal, state and local government web resources and services.